Location: Anton
(37.3520°N, 87.3947°W)
Time: 05:11:07
(UTC+00:00)

N. Korean satellite - Visible Passes

Search period start: 28 November 2022 00:00
Search period end: 08 December 2022 00:00
Orbit: 422 x 454 km, 97.3° (Epoch: 27 November)

Date Brightness Start Highest point End Pass type
(mag) Time Alt. Az. Time Alt. Az. Time Alt. Az.
28 Nov 8.6 10:33:36 10° NE 10:36:34 27° E 10:39:30 10° SSE visible
28 Nov 8.2 12:07:00 10° NW 12:08:48 14° WNW 12:10:36 10° W visible
29 Nov 6.7 11:27:08 10° N 11:30:24 44° WNW 11:33:37 10° SSW visible
29 Nov 10.1 23:29:20 10° WSW 23:30:08 11° W 23:30:56 10° WNW visible
30 Nov 7.5 10:48:27 10° NNE 10:51:45 45° E 10:54:59 10° S visible
01 Dec 9.7 10:11:09 10° ENE 10:12:51 13° E 10:14:32 10° ESE visible
01 Dec 7.3 11:42:28 10° NNW 11:45:23 27° WNW 11:48:17 10° SW visible
02 Dec 6.4 11:03:21 10° NNE 11:06:46 78° E 11:10:07 10° S visible
02 Dec 9.3 23:03:33 10° SSW 23:06:14 22° W 23:08:58 10° NW visible
03 Dec 9.1 10:25:16 10° NE 10:27:53 20° E 10:30:28 10° SE visible
03 Dec 7.9 11:57:54 10° NNW 12:00:13 17° WNW 12:02:32 10° WSW visible
04 Dec 6.3 11:18:15 10° N 11:21:37 61° WNW 11:24:55 10° SSW visible
04 Dec 9.7 23:19:15 10° SW 23:21:10 14° W 23:23:06 10° WNW visible
05 Dec 8.2 10:39:40 10° NNE 10:42:45 32° E 10:45:48 10° SSE visible
05 Dec 8.3 12:13:45 10° NW 12:14:54 11° WNW 12:16:03 10° W visible
06 Dec 6.9 11:33:10 10° N 11:36:19 36° WNW 11:39:24 10° SW visible
07 Dec 7.1 10:54:09 10° NNE 10:57:29 54° E 11:00:45 10° S visible
